Regional Weather Roundup
Issued by NWS

Home | Current Version | Previous Version | Graphics & Text | Print | Product List | Glossary On
Versions: 1 2 3 4 5 6 7 8 9 10 11 12 13 14 15 16 17 18 19 20 21 22 23 24 25 26 27 28 29 30 31 32 33 34 35 36 37 38 39 40 41 42 43 44 45 46 47 48 49 50
000
ASUS43 KIND 260609
RWRIN

WEATHER ROUNDUP FOR INDIANA
NATIONAL WEATHER SERVICE INDIANAPOLIS IN
200 AM EDT WED APR 26 2017

NOTE: "FAIR" INDICATES FEW OR NO CLOUDS BELOW 12,000 FEET WITH NO
SIGNIFICANT WEATHER AND/OR OBSTRUCTIONS TO VISIBILITY.

* - STATION DOES NOT REPORT WEATHER SUCH AS PRECIPITATION OR FOG.

+ - STATION NOT QUALITY CONTROLLED BY THE NATIONAL WEATHER SERVICE.
    USE DATA WITH CAUTION...ESPECIALLY DEWPOINT AND RELATIVE
    HUMIDITY OBSERVATIONS.

INZ001>003-010>013-019-020-260700-
NORTHWEST INDIANA

CITY           SKY/WX    TMP DP  RH WIND       PRES   REMARKS
GARY /AIRPORT/ CLOUDY    68  53  58 SE7       29.57F
KNOX *+        PTCLDY    64  34  32 SE12      29.61F
LA PORTE +     PTCLDY    65  55  71 S8        29.62S
6HR MIN TEMP:  64; 6HR MAX TEMP:  73;

MICHIGAN CITY+ PTCLDY    64  54  68 S7        29.60F
MONTICELLO +   CLOUDY    65  55  69 SE6       29.62S
6HR MIN TEMP:  65; 6HR MAX TEMP:  74;

RENSSELAER +   PTCLDY    64  54  68 SE8       29.60F
VALPARAISO     CLOUDY    67  56  67 SE10      29.60F
6HR MIN TEMP:  67; 6HR MAX TEMP:  75; 6HR PCP: TRACE;


$$

LMZ046-743>745-260700-
SOUTHERN LAKE MICHIGAN

STATION/POSITION TIME  TEMP    WIND        PRES    WAVE
                       AIR SEA DIR/SP/G            HT
                 (UTC) (F)     (DEG/KT/KT) (MB)    (FT)
BURNS HARBOR     0540   69     160/  9/ 16 1002.4F
MICHIGAN CITY    0540   68     150/  9/ 10   N/A

$$

INZ004-005-014>016-021>024-260700-
NORTH CENTRAL INDIANA

CITY           SKY/WX    TMP DP  RH WIND       PRES   REMARKS
GOSHEN         CLEAR     63  53  70 SE9       29.64S
6HR MIN TEMP:  62; 6HR MAX TEMP:  72;

LOGANSPORT +   PTCLDY    59  54  82 SE8       29.64F
PERU/GRISSOM   PTCLDY    61  57  88 SE8       29.63S
6HR MIN TEMP:  60; 6HR MAX TEMP:  71;

ROCHESTER +    CLEAR     66  55  68 S6        29.64F
SOUTH BEND     CLOUDY    66  55  67 S13       29.63F
6HR MIN TEMP:  65; 6HR MAX TEMP:  72;

WARSAW +       PTCLDY    63  54  72 SE3       29.65S

$$

INZ006>009-017-018-025>027-260700-
NORTHEAST INDIANA

CITY           SKY/WX    TMP DP  RH WIND       PRES   REMARKS
ANGOLA *+      CLEAR     57  54  88 SE10      29.66F
AUBURN +       PTCLDY    59  52  77 E5        29.67F
FORT WAYNE     PTCLDY    60  53  77 SE7       29.67S
6HR MIN TEMP:  60; 6HR MAX TEMP:  73;

HUNTINGTON +   CLOUDY    61  55  80 CALM      29.67S
6HR MIN TEMP:  61; 6HR MAX TEMP:  72;

KENDALLVILLE + CLOUDY    57  54  90 SE7       29.66F

$$

INZ028-029-035-036-043>045-051>053-260700-
WEST CENTRAL INDIANA

CITY           SKY/WX    TMP DP  RH WIND       PRES   REMARKS
CRAWFORDSVL +  PTCLDY    60  55  82 SE8       29.63F
6HR MIN TEMP:  60; 6HR MAX TEMP:  72;

GREENCASTLE +  MOCLDY    61  54  77 SE5       29.65F
LAFAYETTE      MOCLDY    64  56  75 SE6       29.61F
6HR MIN TEMP:  64; 6HR MAX TEMP:  74;

TERRE HAUTE    CLOUDY    64  55  72 SE7       29.63S
6HR MIN TEMP:  63; 6HR MAX TEMP:  73;


$$

INZ030>032-037>040-046>048-054>057-064-065-260700-
CENTRAL INDIANA

CITY           SKY/WX    TMP DP  RH WIND       PRES   REMARKS
CP ATTERBURY + CLEAR     61  54  77 S5        29.68R
FRANKFORT +    CLOUDY    66  57  72 S7        29.66S
6HR MIN TEMP:  66; 6HR MAX TEMP:  76;

GREENWOOD *+   PTCLDY    63  55  74 SE3       29.68R
INDIANAPOLIS   PTCLDY    63  55  75 SE8       29.66R
6HR MIN TEMP:  63; 6HR MAX TEMP:  72;

-EAGLE CREEK   PTCLDY    65  55  70 SE6       29.66R
6HR MIN TEMP:  65; 6HR MAX TEMP:  74;

KOKOMO +       PTCLDY    61  55  81 SE8       29.67R
6HR MIN TEMP:  61; 6HR MAX TEMP:  72;

MARION +       CLEAR     61  54  77 S7        29.68R HAZE
MT COMFORT *+  CLEAR     61  54  77 S6        29.67S
SHELBYVILLE    CLEAR     63  53  70 S6        29.67S
6HR MIN TEMP:  62; 6HR MAX TEMP:  74;

ZIONSVILLE +   MOCLDY    63  55  74 S6        29.67S
6HR MIN TEMP:  62; 6HR MAX TEMP:  71;


$$

INZ033-034-041-042-049-050-058-059-260700-
EAST CENTRAL INDIANA

CITY           SKY/WX    TMP DP  RH WIND       PRES   REMARKS
MUNCIE         CLEAR     64  55  72 S5        29.67S
6HR MIN TEMP:  61; 6HR MAX TEMP:  74;

RICHMOND +     CLEAR     55  54  94 S6        29.71R

$$

INZ060-061-067>069-081>083-085>088-260700-
SOUTHWEST INDIANA

CITY           SKY/WX    TMP DP  RH WIND       PRES   REMARKS
EVANSVILLE     CLOUDY    64  56  75 CALM      29.64S
6HR MIN TEMP:  64; 6HR MAX TEMP:  75;

HUNTINGBURG *+ CLEAR     63  56  78 SE5       29.66R
6HR MIN TEMP:  63; 6HR MAX TEMP:  73;

WASHINGTON +   CLEAR     64  54  69 MISG      29.64S

$$

INZ062-063-066-070>080-084-089>092-260700-
SOUTH CENTRAL AND SOUTHEAST INDIANA

CITY           SKY/WX    TMP DP  RH WIND       PRES   REMARKS
BLOOMINGTON    MOCLDY    64  54  69 SE3       29.66R
6HR MIN TEMP:  63; 6HR MAX TEMP:  74;

MADISON *+     CLEAR     61  54  77 CALM      29.71R

$$




USA.gov is the U.S. government's official web portal to all federal, state and local government web resources and services.